Location: ??????
(38.1303°N, 24.0039°E)
Time: 13:10:21
(UTC+00:00)

SL-19 R/B - Pass Details

Date: 20 June 2021
Orbit: 796 x 1009 km, 99.4° (Epoch: 01 August)

Event Time Altitude Azimuth Distance (km) Brightness Sun altitude
Rises 00:44:06 0° 9° (N) 3,326 8.4 -20.4°
Reaches altitude 10° 00:46:25 10° 5° (N) 2,405 7.4 -20.1°
Maximum altitude 00:51:36 57° 288° (WNW) 975 4.4 -19.5°
Enters shadow 00:53:42 35° 227° (SW) 1,334 4.7 -19.3°
